Showing default

JACKAL-004, 69012

Orbit data source: Space-Track

JACKAL-004, 69012 is a payload satellite owned by True Anomaly (US) in SSO that was launched on Sun, 03 May 2026 UTC via an FALCON 9 launch vehicle from the Air Force Western Test Range (AFWTR). Payload-class satellites include a variety of spacecraft equipped with specific instruments for various scientific and technological missions. These include communications satellites like Starlink; space stations such as the ISS; scientific satellites like the Hubble; Earth observation satellites from companies like Planet Labs, Umbra, and HawkEye 360; GPS; miniature CubeSats for education and research; and military/defense satellites.

Loading next visibility...
Identifier
69012, 2026-100AJ
Orbit
SSO
Country
Flag of USUS
Related business
Manufacturer
True Anomaly
Mission
Operational Commercial Imaging
Bus & Motor
JACKAL AOV, Unknown motor
Mass
275 kg wet, 275 kg dry
Launch date (UTC)
2026-05-03 (3 months ago)
Launch vehicle
FALCON 9
Launch site
Air Force Western Test Range (AFWTR)
Object type
Payload
Rocket body
Debris
Shape & HBR
Box + 2 Pan, 14.5 m
Radar Cross Section
1.955 m², Large (>1 m²)

Expand to show TLE details & history
Last TLE update: 21 hours ago

TLE from 21 hours ago
0 JACKAL-004
1 69012U 26100AJ  26201.83743929  .00002170  00000-0  10067-3 0  9990
2 69012  97.4605  99.2059 0004576 341.6278  18.4792 15.21108526 11923
Epoch: 2026-07-20T20:05Z
TLE epoch observation values (Epoch: 2026-07-20T20:05:54.754Z)
Latitude
0.00001°
Longitude
-140.888°
Altitude
502.599 km
Speed
7.615 km/s
True Right ascension
06h 36m 49s
True Declination
0° 00' 00"
Sunlit
Object was in daylight at epoch
Visualization orbit readout
Latitude
Unknown
Longitude
Unknown
Altitude
Unknown
Speed
Unknown
Apparent Right ascension
Unknown
Apparent Declination
Unknown
Sunlit
N/A
Visualization observer readout
Local Sidereal Time
06:02:29
Azimuth
Unknown
Elevation
Unknown
Doppler factor
Unknown
Orbital elements
Apogee altitude
502.61 km
Perigee altitude
496.315 km
Semi-major axis
6,877.599 km
Eccentricity
0.00046
Inclination
97.4605°
RAAN
99.2059°
Arg. of periapsis
341.6278°
True anomaly
18.49583°
Mean anomaly
18.4792°
Eccentric anomaly
18.48751°
Mean motion
3.80529 °/min
Orbital period
94.61 mins
BSTAR
0.00010067
Loading maneuver chart data...
Computing Atmospheric mass density...
Loading historical data...
Loading historical data...
Loading historical data...
Loading historical data...
Loading historical data...
Loading historical data...
Loading historical data...

Documentation

Showing up to 5 results
|